0610100021,1994,01,01,00,0.3
0610100021,1994,01,01,01,0.7
0610100021,1994,01,01,02,0.5
0610100021,1994,01,01,03,0.7
0610100021,1994,01,01,05,0.8
0610100021,1994,01,01,06,1.1
0610100021,1994,01,01,07,1.2
0610100021,1994,01,01,08,1.1
0610100021,1994,01,01,09,1
0610100021,1994,01,01,10,1.1
0610100021,1994,01,01,11,0.9
0610100021,1994,01,01,12,1.1
0610100021,1994,01,01,13,1.2
0610100021,1994,01,01,14,1.2
0610100021,1994,01,01,15,1.3
0610100021,1994,01,01,16,1
0610100021,1994,01,01,17,0.7
0610100021,1994,01,01,18,0.7
0610100021,1994,01,01,19,0.7
0610100021,1994,01,01,20,0.8
0610100021,1994,01,01,21,0.7
0610100021,1994,01,01,22,0.5
0610100021,1994,01,01,23,0.3
0610100021,1994,01,02,00,0.2
0610100021,1994,01,02,01,0.2
0610100021,1994,01,02,02,0.2
0610100021,1994,01,02,03,0.2
0610100021,1994,01,02,05,0.4
0610100021,1994,01,02,06,0.4
0610100021,1994,01,02,07,0.3
0610100021,1994,01,02,08,0.5
0610100021,1994,01,02,09,0.7
0610100021,1994,01,02,10,0.8
0610100021,1994,01,02,11,1.1
0610100021,1994,01,02,12,1.3
0610100021,1994,01,02,13,1.6
0610100021,1994,01,02,14,1.6
0610100021,1994,01,02,15,1.7
0610100021,1994,01,02,16,1.6
0610100021,1994,01,02,17,1.5
0610100021,1994,01,02,18,1.4
0610100021,1994,01,02,19,1.5
0610100021,1994,01,02,20,1.3
0610100021,1994,01,02,21,1.4
0610100021,1994,01,02,22,1.4
0610100021,1994,01,02,23,1.1
0610100021,1994,01,03,00,1.1
0610100021,1994,01,03,01,1
0610100021,1994,01,03,02,0.9
0610100021,1994,01,03,03,0.9
0610100021,1994,01,03,05,1.2
0610100021,1994,01,03,06,1
0610100021,1994,01,03,07,0.9
0610100021,1994,01,03,08,1
0610100021,1994,01,03,09,1.1
0610100021,1994,01,03,10,0.9
0610100021,1994,01,03,11,1
0610100021,1994,01,03,12,1.1
0610100021,1994,01,03,13,1.2
0610100021,1994,01,03,14,1.1
0610100021,1994,01,03,15,1
0610100021,1994,01,03,16,1.1
0610100021,1994,01,03,17,1.1
0610100021,1994,01,03,18,0.9
0610100021,1994,01,03,19,0.4
0610100021,1994,01,03,20,0.2
0610100021,1994,01,03,21,0.1
0610100021,1994,01,03,22,0.2
0610100021,1994,01,03,23,0.2
0610100021,1994,01,04,00,0.2
0610100021,1994,01,04,01,0.2
0610100021,1994,01,04,02,0.4
0610100021,1994,01,04,03,0.7
0610100021,1994,01,04,05,0.4
0610100021,1994,01,04,06,0.3
0610100021,1994,01,04,07,0.3
0610100021,1994,01,04,08,0.3
0610100021,1994,01,04,09,0.3
0610100021,1994,01,04,10,0.2
0610100021,1994,01,04,11,0.2
0610100021,1994,01,04,12,0.3
0610100021,1994,01,04,13,0.3
0610100021,1994,01,04,14,0.4
0610100021,1994,01,04,15,0.3
0610100021,1994,01,04,16,0.2
0610100021,1994,01,04,17,0.2
0610100021,1994,01,04,18,0.1
0610100021,1994,01,04,19,0.2
0610100021,1994,01,04,20,0.2
0610100021,1994,01,04,21,0.2
0610100021,1994,01,04,22,0.2
0610100021,1994,01,04,23,0.2
0610100021,1994,01,05,00,0.2
0610100021,1994,01,05,01,0.2
0610100021,1994,01,05,02,0.2
0610100021,1994,01,05,03,0.2
0610100021,1994,01,05,05,0.8
0610100021,1994,01,05,06,0.9
0610100021,1994,01,05,07,0.5
0610100021,1994,01,05,08,0.5
0610100021,1994,01,05,09,1.1
0610100021,1994,01,05,11,1.3
0610100021,1994,01,05,12,1.5
0610100021,1994,01,05,13,1.8
0610100021,1994,01,05,14,1.8
0610100021,1994,01,05,15,1.6
0610100021,1994,01,05,16,1
0610100021,1994,01,05,17,0.6
0610100021,1994,01,05,18,0.7
0610100021,1994,01,05,19,0.5
0610100021,1994,01,05,20,0.9
0610100021,1994,01,05,21,0.6
0610100021,1994,01,05,22,0.7
0610100021,1994,01,05,23,0.9
0610100021,1994,01,06,00,0.7
0610100021,1994,01,06,01,0.7
0610100021,1994,01,06,02,0.4
0610100021,1994,01,06,03,0.4
0610100021,1994,01,06,05,0.8
0610100021,1994,01,06,06,0.7
0610100021,1994,01,06,07,0.5
0610100021,1994,01,06,08,0.9
0610100021,1994,01,06,09,1.2
0610100021,1994,01,06,10,1.8
0610100021,1994,01,06,11,2.4
0610100021,1994,01,06,12,2.6
0610100021,1994,01,06,13,2.8
0610100021,1994,01,06,14,3.1
0610100021,1994,01,06,15,1.9
0610100021,1994,01,06,16,0.6
0610100021,1994,01,06,17,0.2
0610100021,1994,01,06,18,0.1
0610100021,1994,01,06,19,0.2
0610100021,1994,01,06,20,0.2
0610100021,1994,01,06,21,0.2
0610100021,1994,01,06,22,0.2
0610100021,1994,01,06,23,0.2
0610100021,1994,01,07,00,0.2
0610100021,1994,01,07,01,0.2
0610100021,1994,01,07,02,0.1
0610100021,1994,01,07,03,0.1
0610100021,1994,01,07,05,0.2
0610100021,1994,01,07,06,0.1
0610100021,1994,01,07,07,0.2
0610100021,1994,01,07,08,0.2
0610100021,1994,01,07,09,0.2
0610100021,1994,01,07,10,0.4
0610100021,1994,01,07,11,0.6
0610100021,1994,01,07,12,0.8
0610100021,1994,01,07,13,1.3
0610100021,1994,01,07,14,1.7
0610100021,1994,01,07,15,1.9
0610100021,1994,01,07,16,1.4
0610100021,1994,01,07,17,0.2
0610100021,1994,01,07,18,0.2
0610100021,1994,01,07,19,0.2
0610100021,1994,01,07,20,0.2
0610100021,1994,01,07,21,0.3
0610100021,1994,01,07,22,0.1
0610100021,1994,01,07,23,0.1
0610100021,1994,01,08,00,0.1
0610100021,1994,01,08,01,0.3
0610100021,1994,01,08,02,0.4
0610100021,1994,01,08,03,0.3
0610100021,1994,01,08,05,0.2
0610100021,1994,01,08,06,0.2
0610100021,1994,01,08,07,0.1
0610100021,1994,01,08,08,0.2
0610100021,1994,01,08,09,0.3
0610100021,1994,01,08,10,0.3
0610100021,1994,01,08,11,0.7
0610100021,1994,01,08,12,0.9
0610100021,1994,01,08,13,1.2
0610100021,1994,01,08,14,1.8
0610100021,1994,01,08,15,1.8
0610100021,1994,01,08,16,1.5
0610100021,1994,01,08,17,0.7
0610100021,1994,01,08,18,0.1
0610100021,1994,01,08,19,0.2
0610100021,1994,01,08,20,0.2
0610100021,1994,01,08,21,0.2
0610100021,1994,01,08,22,0.2
0610100021,1994,01,08,23,0.2
0610100021,1994,01,09,00,0.1
0610100021,1994,01,09,01,0.6
0610100021,1994,01,09,02,0.3
0610100021,1994,01,09,03,0.3
0610100021,1994,01,09,05,0.5
0610100021,1994,01,09,06,0.4
0610100021,1994,01,09,07,0.3
0610100021,1994,01,09,08,0.5
0610100021,1994,01,09,09,0.9
0610100021,1994,01,09,10,1.4
0610100021,1994,01,09,11,1.8
0610100021,1994,01,09,12,2.2
0610100021,1994,01,09,13,2.9
0610100021,1994,01,09,14,3.2
0610100021,1994,01,09,15,3.2
0610100021,1994,01,09,16,2.6
0610100021,1994,01,09,17,1.3
0610100021,1994,01,09,18,1.2
0610100021,1994,01,09,19,0.7
0610100021,1994,01,09,20,0.5
0610100021,1994,01,09,21,0.7
0610100021,1994,01,09,22,0.8
0610100021,1994,01,09,23,0.7
0610100021,1994,01,10,00,1.2
0610100021,1994,01,10,01,0.9
0610100021,1994,01,10,02,0.6
0610100021,1994,01,10,03,0.3
0610100021,1994,01,10,05,0.1
0610100021,1994,01,10,06,0.1
0610100021,1994,01,10,07,0.1
0610100021,1994,01,10,08,0.3
0610100021,1994,01,10,09,0.4
0610100021,1994,01,10,10,0.7
0610100021,1994,01,10,11,1.2
0610100021,1994,01,10,12,1.5
0610100021,1994,01,10,13,2.3
0610100021,1994,01,10,14,2.6
0610100021,1994,01,10,15,2.5
0610100021,1994,01,10,16,1.6
0610100021,1994,01,10,17,0.2
0610100021,1994,01,10,18,0.2
0610100021,1994,01,10,19,0.2
0610100021,1994,01,10,20,0.2
0610100021,1994,01,10,21,0.2
0610100021,1994,01,10,22,0.3
0610100021,1994,01,10,23,0.2
0610100021,1994,01,11,00,0.2
0610100021,1994,01,11,01,0.2
0610100021,1994,01,11,02,0.1
0610100021,1994,01,11,03,0
0610100021,1994,01,11,05,0.1
0610100021,1994,01,11,06,0.2
0610100021,1994,01,11,07,0
0610100021,1994,01,11,08,0.2
0610100021,1994,01,11,09,0.4
0610100021,1994,01,11,10,0.7
0610100021,1994,01,11,11,1.4
0610100021,1994,01,11,12,2.4
0610100021,1994,01,11,13,2.9
0610100021,1994,01,11,14,3.3
0610100021,1994,01,11,15,3.3
0610100021,1994,01,11,16,2.2
0610100021,1994,01,11,17,1.3
0610100021,1994,01,11,18,1.6
0610100021,1994,01,11,19,1.2
0610100021,1994,01,11,20,1.4
0610100021,1994,01,11,21,1.1
0610100021,1994,01,11,22,0.9
0610100021,1994,01,11,23,0.5
0610100021,1994,01,12,00,0.4
0610100021,1994,01,12,01,0.2
0610100021,1994,01,12,02,0.1
0610100021,1994,01,12,03,0.2
0610100021,1994,01,12,05,0.3
0610100021,1994,01,12,06,0
0610100021,1994,01,12,07,0.2
0610100021,1994,01,12,08,0.2
0610100021,1994,01,12,09,0.3
0610100021,1994,01,12,10,0.6
0610100021,1994,01,12,11,0.9
0610100021,1994,01,12,12,2.7
0610100021,1994,01,12,13,3.5
0610100021,1994,01,12,14,3.8
0610100021,1994,01,12,15,3.9
0610100021,1994,01,12,16,3.5
0610100021,1994,01,12,17,1.5
0610100021,1994,01,12,18,0.2
0610100021,1994,01,12,19,0.5
0610100021,1994,01,12,20,0.7
0610100021,1994,01,12,21,1
0610100021,1994,01,12,22,0.7
0610100021,1994,01,12,23,0.4
0610100021,1994,01,13,00,0.2
0610100021,1994,01,13,01,0.2
0610100021,1994,01,13,02,0.1
0610100021,1994,01,13,03,0.1
0610100021,1994,01,13,05,0.1
0610100021,1994,01,13,06,0.1
0610100021,1994,01,13,07,0.1
0610100021,1994,01,13,08,0.3
0610100021,1994,01,13,09,0.5
0610100021,1994,01,13,10,0.7
0610100021,1994,01,13,11,1.4
0610100021,1994,01,13,12,2.3
0610100021,1994,01,13,13,2.6
0610100021,1994,01,13,14,3.2
0610100021,1994,01,13,15,3.5
0610100021,1994,01,13,16,3.4
0610100021,1994,01,13,17,2.1
0610100021,1994,01,13,18,0.7
0610100021,1994,01,13,19,0.2
0610100021,1994,01,13,20,0.3
0610100021,1994,01,13,21,0.3
0610100021,1994,01,13,22,0.3
0610100021,1994,01,13,23,0.2
0610100021,1994,01,14,00,0.2
0610100021,1994,01,14,01,0.2
0610100021,1994,01,14,02,0.2
0610100021,1994,01,14,03,0.1
0610100021,1994,01,14,05,0.1
0610100021,1994,01,14,06,0.1
0610100021,1994,01,14,07,0.1
0610100021,1994,01,14,08,0.2
0610100021,1994,01,14,10,0.7
0610100021,1994,01,14,11,0.8
0610100021,1994,01,14,12,1.1
0610100021,1994,01,14,13,1.6
0610100021,1994,01,14,14,1.8
0610100021,1994,01,14,15,1.1
0610100021,1994,01,14,16,0.4
0610100021,1994,01,14,17,0.2
0610100021,1994,01,14,18,0.2
0610100021,1994,01,14,19,0.2
0610100021,1994,01,14,20,0.2
0610100021,1994,01,14,21,0.2
0610100021,1994,01,14,22,0.2
0610100021,1994,01,14,23,0.2
0610100021,1994,01,15,00,0.2
0610100021,1994,01,15,01,0.2
0610100021,1994,01,15,02,0.4
0610100021,1994,01,15,03,0.4
0610100021,1994,01,15,05,0.3
0610100021,1994,01,15,06,0.2
0610100021,1994,01,15,07,0.2
0610100021,1994,01,15,08,0.2
0610100021,1994,01,15,09,0.2
0610100021,1994,01,15,10,0.4
0610100021,1994,01,15,11,0.5
0610100021,1994,01,15,12,1.2
0610100021,1994,01,15,13,2
0610100021,1994,01,15,14,2.9
0610100021,1994,01,15,15,3.3
0610100021,1994,01,15,16,2.9
0610100021,1994,01,15,17,2.3
0610100021,1994,01,15,18,1.2
0610100021,1994,01,15,19,0.2
0610100021,1994,01,15,20,0.2
0610100021,1994,01,15,21,0.2
0610100021,1994,01,15,22,0.6
0610100021,1994,01,15,23,0.7
0610100021,1994,01,16,00,0.6
0610100021,1994,01,16,01,0.4
0610100021,1994,01,16,02,0.2
0610100021,1994,01,16,03,0.1
0610100021,1994,01,16,05,0.1
0610100021,1994,01,16,06,0.1
0610100021,1994,01,16,07,0.1
0610100021,1994,01,16,08,0.1
0610100021,1994,01,16,09,0.3
0610100021,1994,01,16,10,0.7
0610100021,1994,01,16,11,1.2
0610100021,1994,01,16,12,1.6
0610100021,1994,01,16,13,2.7
0610100021,1994,01,16,14,3.6
0610100021,1994,01,16,15,3.9
0610100021,1994,01,16,16,3.1
0610100021,1994,01,16,17,2.2
0610100021,1994,01,16,18,1
0610100021,1994,01,16,19,0.2
0610100021,1994,01,16,20,0.2
0610100021,1994,01,16,21,0.3
0610100021,1994,01,16,22,0.4
0610100021,1994,01,16,23,0.3
0610100021,1994,01,17,00,0.3
0610100021,1994,01,17,01,0.2
0610100021,1994,01,17,02,0.2
0610100021,1994,01,17,03,0.1
0610100021,1994,01,17,05,0.1
0610100021,1994,01,17,06,0.1
0610100021,1994,01,17,07,0.1
0610100021,1994,01,17,08,0.1
0610100021,1994,01,17,09,0.5
0610100021,1994,01,17,10,0.9
0610100021,1994,01,17,11,2.7
0610100021,1994,01,17,12,3.3
0610100021,1994,01,17,13,4.4
0610100021,1994,01,17,14,4.9
0610100021,1994,01,17,15,5
0610100021,1994,01,17,16,3.3
0610100021,1994,01,17,17,1.5
0610100021,1994,01,17,18,0.4
0610100021,1994,01,17,19,0.2
0610100021,1994,01,17,20,0.2
0610100021,1994,01,17,21,0.3
0610100021,1994,01,17,22,0.4
0610100021,1994,01,17,23,0.3
0610100021,1994,01,18,00,0.3
0610100021,1994,01,18,01,0.2
0610100021,1994,01,18,02,0.2
0610100021,1994,01,18,03,0.2
0610100021,1994,01,18,05,0.2
0610100021,1994,01,18,06,0.2
0610100021,1994,01,18,07,0.2
0610100021,1994,01,18,08,0.2
0610100021,1994,01,18,09,0.3
0610100021,1994,01,18,10,0.6
0610100021,1994,01,18,11,1.4
0610100021,1994,01,18,12,3.3
0610100021,1994,01,18,13,4.7
0610100021,1994,01,18,14,5
0610100021,1994,01,18,15,5.7
0610100021,1994,01,18,16,5.1
0610100021,1994,01,18,17,2.6
0610100021,1994,01,18,18,1.6
0610100021,1994,01,18,19,1.7
0610100021,1994,01,18,20,0.8
0610100021,1994,01,18,21,1.3
0610100021,1994,01,18,22,0.9
0610100021,1994,01,18,23,0.4
0610100021,1994,01,19,00,0.1
0610100021,1994,01,19,01,0.1
0610100021,1994,01,19,02,0.1
0610100021,1994,01,19,03,0.1
0610100021,1994,01,19,05,0.2
0610100021,1994,01,19,06,0.2
0610100021,1994,01,19,07,0.2
0610100021,1994,01,19,08,0.3
0610100021,1994,01,19,09,0.6
0610100021,1994,01,19,10,1
0610100021,1994,01,19,11,1.8
0610100021,1994,01,19,12,3.1
0610100021,1994,01,19,13,3.5
0610100021,1994,01,19,14,4
0610100021,1994,01,19,15,4.2
0610100021,1994,01,19,16,3.8
0610100021,1994,01,19,17,1.3
0610100021,1994,01,19,18,0.6
0610100021,1994,01,19,19,1.1
0610100021,1994,01,19,20,0.9
0610100021,1994,01,19,21,1
0610100021,1994,01,19,22,0.4
0610100021,1994,01,19,23,0.2
0610100021,1994,01,20,00,0.2
0610100021,1994,01,20,01,0.4
0610100021,1994,01,20,02,0.3
0610100021,1994,01,20,03,0.1
0610100021,1994,01,20,05,0.2
0610100021,1994,01,20,06,0.2
0610100021,1994,01,20,07,0.2
0610100021,1994,01,20,08,0.2
0610100021,1994,01,20,09,0.4
0610100021,1994,01,20,12,3
0610100021,1994,01,20,13,3.6
0610100021,1994,01,20,14,3.8
0610100021,1994,01,20,15,2.9
0610100021,1994,01,20,16,0.9
0610100021,1994,01,20,17,0.6
0610100021,1994,01,20,18,0.2
0610100021,1994,01,20,19,0.2
0610100021,1994,01,20,20,0.3
0610100021,1994,01,20,21,0.3
0610100021,1994,01,20,22,0.3
0610100021,1994,01,20,23,0.4
0610100021,1994,01,21,00,0.2
0610100021,1994,01,21,01,0.2
0610100021,1994,01,21,02,0.2
0610100021,1994,01,21,03,0.1
0610100021,1994,01,21,05,0.1
0610100021,1994,01,21,06,0.2
0610100021,1994,01,21,07,0.2
0610100021,1994,01,21,08,0.3
0610100021,1994,01,21,09,0.6
0610100021,1994,01,21,10,1.2
0610100021,1994,01,21,11,1.8
0610100021,1994,01,21,12,2
0610100021,1994,01,21,13,2.4
0610100021,1994,01,21,14,2.6
0610100021,1994,01,21,15,2.9
0610100021,1994,01,21,16,2.3
0610100021,1994,01,21,17,1.4
0610100021,1994,01,21,18,0.4
0610100021,1994,01,21,19,0.3
0610100021,1994,01,21,20,0.4
0610100021,1994,01,21,21,0.3
0610100021,1994,01,21,22,0.8
0610100021,1994,01,21,23,0.3
0610100021,1994,01,22,00,0.4
0610100021,1994,01,22,01,0.2
0610100021,1994,01,22,02,0.2
0610100021,1994,01,22,03,0.2
0610100021,1994,01,22,05,0.5
0610100021,1994,01,22,06,0.4
0610100021,1994,01,22,07,0.3
0610100021,1994,01,22,08,0.6
0610100021,1994,01,22,09,1.1
0610100021,1994,01,22,10,1.6
0610100021,1994,01,22,11,2.7
0610100021,1994,01,22,12,3.5
0610100021,1994,01,22,13,3.4
0610100021,1994,01,22,14,3.8
0610100021,1994,01,22,15,4.4
0610100021,1994,01,22,16,2.9
0610100021,1994,01,22,17,1.6
0610100021,1994,01,22,18,0.5
0610100021,1994,01,22,19,1
0610100021,1994,01,22,20,1.1
0610100021,1994,01,22,21,1.3
0610100021,1994,01,22,22,1.8
0610100021,1994,01,22,23,0.9
0610100021,1994,01,23,00,1.8
0610100021,1994,01,23,01,2.2
0610100021,1994,01,23,02,2.3
0610100021,1994,01,23,03,2.1
0610100021,1994,01,23,05,2.4
0610100021,1994,01,23,06,2.8
0610100021,1994,01,23,07,2.2
0610100021,1994,01,23,08,2.1
0610100021,1994,01,23,09,2.6
0610100021,1994,01,23,10,2.6
0610100021,1994,01,23,11,3.2
0610100021,1994,01,23,12,3.5
0610100021,1994,01,23,13,3.6
0610100021,1994,01,23,14,3.4
0610100021,1994,01,23,15,3.1
0610100021,1994,01,23,16,3.3
0610100021,1994,01,23,17,2.2
0610100021,1994,01,23,18,1.2
0610100021,1994,01,23,19,1.4
0610100021,1994,01,23,20,0.9
0610100021,1994,01,23,21,0.9
0610100021,1994,01,23,22,1
0610100021,1994,01,23,23,1.4
0610100021,1994,01,24,00,1.4
0610100021,1994,01,24,01,1.7
0610100021,1994,01,24,02,1.5
0610100021,1994,01,24,03,2
0610100021,1994,01,24,05,2.6
0610100021,1994,01,24,06,2.6
0610100021,1994,01,24,07,2.8
0610100021,1994,01,24,08,2.4
0610100021,1994,01,24,09,2.2
0610100021,1994,01,24,10,2.1
0610100021,1994,01,24,11,2
0610100021,1994,01,24,12,2.3
0610100021,1994,01,24,13,2.6
0610100021,1994,01,24,14,2.9
0610100021,1994,01,24,15,2.7
0610100021,1994,01,24,16,2.4
0610100021,1994,01,24,17,2.4
0610100021,1994,01,24,18,1.6
0610100021,1994,01,24,19,1.5
0610100021,1994,01,24,20,1.5
0610100021,1994,01,24,21,1.5
0610100021,1994,01,24,22,1.1
0610100021,1994,01,24,23,1.1
0610100021,1994,01,25,00,1.3
0610100021,1994,01,25,01,1.8
0610100021,1994,01,25,02,2.1
0610100021,1994,01,25,03,2.1
0610100021,1994,01,25,05,2
0610100021,1994,01,25,06,2.3
0610100021,1994,01,25,07,1.9
0610100021,1994,01,25,08,2
0610100021,1994,01,25,09,2.3
0610100021,1994,01,25,10,2.6
0610100021,1994,01,25,11,2.6
0610100021,1994,01,25,12,2.8
0610100021,1994,01,25,13,2.8
0610100021,1994,01,25,14,2.9
0610100021,1994,01,25,15,2.7
0610100021,1994,01,25,16,2.5
0610100021,1994,01,25,17,2.1
0610100021,1994,01,25,18,2
0610100021,1994,01,25,19,2.8
0610100021,1994,01,25,20,2.4
0610100021,1994,01,25,21,2.5
0610100021,1994,01,25,22,2.6
0610100021,1994,01,25,23,2
0610100021,1994,01,26,00,2
0610100021,1994,01,26,01,2.2
0610100021,1994,01,26,02,2.4
0610100021,1994,01,26,03,2.3
0610100021,1994,01,26,05,1.9
0610100021,1994,01,26,06,1.3
0610100021,1994,01,26,07,1.7
0610100021,1994,01,26,08,2
0610100021,1994,01,26,11,3
0610100021,1994,01,26,12,2.8
0610100021,1994,01,26,13,2.9
0610100021,1994,01,26,14,3
0610100021,1994,01,26,15,3
0610100021,1994,01,26,16,2.6
0610100021,1994,01,26,17,1.8
0610100021,1994,01,26,18,1.7
0610100021,1994,01,26,19,2.2
0610100021,1994,01,26,20,1
0610100021,1994,01,26,21,0.2
0610100021,1994,01,26,22,0.3
0610100021,1994,01,26,23,0.2
0610100021,1994,01,27,00,0.2
0610100021,1994,01,27,01,0.3
0610100021,1994,01,27,02,0.9
0610100021,1994,01,27,03,0.7
0610100021,1994,01,27,05,0.9
0610100021,1994,01,27,06,1.4
0610100021,1994,01,27,07,1.2
0610100021,1994,01,27,08,1.3
0610100021,1994,01,27,09,1.9
0610100021,1994,01,27,10,2.5
0610100021,1994,01,27,11,2.8
0610100021,1994,01,27,12,3.1
0610100021,1994,01,27,13,3.5
0610100021,1994,01,27,14,3.4
0610100021,1994,01,27,15,3.3
0610100021,1994,01,27,16,3.1
0610100021,1994,01,27,17,2.8
0610100021,1994,01,27,18,2.6
0610100021,1994,01,27,19,2.1
0610100021,1994,01,27,20,2.1
0610100021,1994,01,27,21,2.1
0610100021,1994,01,27,22,2
0610100021,1994,01,27,23,1.6
0610100021,1994,01,28,00,1.5
0610100021,1994,01,28,01,0.2
0610100021,1994,01,28,02,0.4
0610100021,1994,01,28,03,0.4
0610100021,1994,01,28,05,0.2
0610100021,1994,01,28,06,0
0610100021,1994,01,28,07,0.1
0610100021,1994,01,28,08,0.2
0610100021,1994,01,28,09,0.8
0610100021,1994,01,28,10,1.4
0610100021,1994,01,28,11,1.8
0610100021,1994,01,28,12,2.6
0610100021,1994,01,28,13,2.9
0610100021,1994,01,28,14,3.3
0610100021,1994,01,28,15,3.3
0610100021,1994,01,28,16,2.6
0610100021,1994,01,28,17,0.4
0610100021,1994,01,28,18,0.5
0610100021,1994,01,28,19,1.1
0610100021,1994,01,28,20,0.2
0610100021,1994,01,28,21,0.1
0610100021,1994,01,28,22,0.2
0610100021,1994,01,28,23,0.1
0610100021,1994,01,29,00,0.3
0610100021,1994,01,29,01,0.2
0610100021,1994,01,29,02,0.4
0610100021,1994,01,29,03,0.4
0610100021,1994,01,29,05,0.5
0610100021,1994,01,29,06,0.1
0610100021,1994,01,29,07,0.1
0610100021,1994,01,29,08,0.3
0610100021,1994,01,29,09,1
0610100021,1994,01,29,10,1.5
0610100021,1994,01,29,11,1.7
0610100021,1994,01,29,12,2.3
0610100021,1994,01,29,13,2.7
0610100021,1994,01,29,14,3.3
0610100021,1994,01,29,15,3.6
0610100021,1994,01,29,16,3.2
0610100021,1994,01,29,17,2.5
0610100021,1994,01,29,18,1.1
0610100021,1994,01,29,19,0.1
0610100021,1994,01,29,20,0.2
0610100021,1994,01,29,21,0.2
0610100021,1994,01,29,22,0.2
0610100021,1994,01,29,23,0.3
0610100021,1994,01,30,00,0.3
0610100021,1994,01,30,01,0.2
0610100021,1994,01,30,02,0.1
0610100021,1994,01,30,03,0.1
0610100021,1994,01,30,05,0.1
0610100021,1994,01,30,06,0.1
0610100021,1994,01,30,07,0.1
0610100021,1994,01,30,08,0.2
0610100021,1994,01,30,09,0.7
0610100021,1994,01,30,10,1.3
0610100021,1994,01,30,11,1.4
0610100021,1994,01,30,12,1.9
0610100021,1994,01,30,13,2.2
0610100021,1994,01,30,14,3.4
0610100021,1994,01,30,15,3.5
0610100021,1994,01,30,16,3.2
0610100021,1994,01,30,17,2.3
0610100021,1994,01,30,18,0.5
0610100021,1994,01,30,19,0.2
0610100021,1994,01,30,20,0.2
0610100021,1994,01,30,21,0.2
0610100021,1994,01,30,22,0.2
0610100021,1994,01,30,23,0.1
0610100021,1994,01,31,00,0.1
0610100021,1994,01,31,01,0.1
0610100021,1994,01,31,02,0.1
0610100021,1994,01,31,03,0.2
0610100021,1994,01,31,05,0.1
0610100021,1994,01,31,06,0.2
0610100021,1994,01,31,07,0.5
0610100021,1994,01,31,08,0.6
0610100021,1994,01,31,09,1.2
0610100021,1994,01,31,10,1.6
0610100021,1994,01,31,11,2.2
0610100021,1994,01,31,12,3.1
0610100021,1994,01,31,13,3.5
0610100021,1994,01,31,14,3.7
0610100021,1994,01,31,15,3.6
0610100021,1994,01,31,16,3.2
0610100021,1994,01,31,17,3.1
0610100021,1994,01,31,18,0.6
0610100021,1994,01,31,19,0.1
0610100021,1994,01,31,20,0
0610100021,1994,01,31,21,0.1
0610100021,1994,01,31,22,0.2
0610100021,1994,01,31,23,0.3
0610100021,1994,02,01,00,0.2
0610100021,1994,02,01,01,0.3
0610100021,1994,02,01,02,0.2
0610100021,1994,02,01,03,0.2
0610100021,1994,02,01,05,0.2
0610100021,1994,02,01,06,0.2
0610100021,1994,02,01,07,0.1
0610100021,1994,02,01,08,0.1
0610100021,1994,02,01,09,0.5
0610100021,1994,02,01,10,1.3
0610100021,1994,02,01,11,1
0610100021,1994,02,01,12,1.6
0610100021,1994,02,01,13,2.9
0610100021,1994,02,01,14,3.2
0610100021,1994,02,01,15,3.2
0610100021,1994,02,01,16,2.7
0610100021,1994,02,01,17,1
0610100021,1994,02,01,18,0.5
0610100021,1994,02,01,19,0.3
0610100021,1994,02,01,20,0.3
0610100021,1994,02,01,21,0.1
0610100021,1994,02,01,22,0.1
0610100021,1994,02,01,23,0
0610100021,1994,02,02,00,0.1
0610100021,1994,02,02,01,0.1
0610100021,1994,02,02,02,0
0610100021,1994,02,02,03,0
0610100021,1994,02,02,05,0
0610100021,1994,02,02,06,0
0610100021,1994,02,02,07,0.1
0610100021,1994,02,02,08,0.3
0610100021,1994,02,02,09,0.6
0610100021,1994,02,02,10,1
0610100021,1994,02,02,11,1.4
0610100021,1994,02,02,12,2.4
0610100021,1994,02,02,13,2.6
0610100021,1994,02,02,14,2.8
0610100021,1994,02,02,15,2.6
0610100021,1994,02,02,16,1.5
0610100021,1994,02,02,17,0.4
0610100021,1994,02,02,18,0.1
0610100021,1994,02,02,19,0.2
0610100021,1994,02,02,20,0
0610100021,1994,02,02,21,0.2
0610100021,1994,02,02,22,0.3
0610100021,1994,02,02,23,0.2
0610100021,1994,02,03,00,0.2
0610100021,1994,02,03,01,0.2
0610100021,1994,02,03,02,0.1
0610100021,1994,02,03,03,0.1
0610100021,1994,02,03,05,0.1
0610100021,1994,02,03,06,0.1
0610100021,1994,02,03,07,0.1
0610100021,1994,02,03,08,0.2
0610100021,1994,02,03,09,0.5
0610100021,1994,02,03,10,0.9
0610100021,1994,02,03,11,1.2
0610100021,1994,02,03,12,2.6
0610100021,1994,02,03,13,3.5
0610100021,1994,02,03,14,3.5
0610100021,1994,02,03,15,3.4
0610100021,1994,02,03,16,3.1
0610100021,1994,02,03,17,2.6
0610100021,1994,02,03,18,1.8
0610100021,1994,02,03,19,1
0610100021,1994,02,03,20,2.6
0610100021,1994,02,03,21,2.3
0610100021,1994,02,03,22,1.8
0610100021,1994,02,03,23,0.5
0610100021,1994,02,04,00,0.1
0610100021,1994,02,04,01,0.1
0610100021,1994,02,04,02,0.5
0610100021,1994,02,04,03,0.2
0610100021,1994,02,04,05,0.1
0610100021,1994,02,04,06,0.1
0610100021,1994,02,04,07,0.2
0610100021,1994,02,04,08,0.2
0610100021,1994,02,04,09,0.6
0610100021,1994,02,04,10,1.9
0610100021,1994,02,04,11,2.4
0610100021,1994,02,04,12,3
0610100021,1994,02,04,13,3.6
0610100021,1994,02,04,14,3.8
0610100021,1994,02,04,15,4.1
0610100021,1994,02,04,16,3.6
0610100021,1994,02,04,17,2.4
0610100021,1994,02,04,18,0.9
0610100021,1994,02,04,19,0.6
0610100021,1994,02,04,20,0.1
0610100021,1994,02,04,21,0.1
0610100021,1994,02,04,22,0.1
0610100021,1994,02,04,23,0.2
0610100021,1994,02,05,00,0.1
0610100021,1994,02,05,01,0.2
0610100021,1994,02,05,02,0.4
0610100021,1994,02,05,03,0.1